{"data":{"norad_id":68848,"epoch":"2026-05-25T04:00:03.998880Z","epoch_age_seconds":70893,"freshness":"FRESH","line1":"1 68848U 26094K   26145.16671295  .00000654  00000+0  13703-4 0  9992","line2":"2 68848  97.2852 159.8424 0000795 100.8465 278.3731 15.49166500  5606","mean_motion":15.491665,"eccentricity":7.95e-5,"inclination_deg":97.2852,"raan_deg":159.8424,"arg_perigee_deg":100.8465,"mean_anomaly_deg":278.3731,"bstar":1.3703e-5,"rev_number":560,"period_min":92.953210645854,"perigee_km":418.6226978423,"apogee_km":419.70346855553,"semimajor_km":6797.3000831989,"source":"CELESTRAK","updated_at":"2026-05-25T13:38:22.047490Z"}}